CBY302 VTCP-VTPP

Flight info

Callsign CBY302
Flight time 0h 31m
Altitude 13000
Route PAE004012 DCT PAE DCT PAE164029 DCT PSL023027 DCT DAMRI DCT PUGAN
Aircraft AT76/M-SDFGIRY/S

Departure

Time 2026-05-04 09:11
Airport Phrae Airport (VTCP)

Arrival

Time 2026-05-04 09:42
Airport Phitsanulok Airport (VTPP)
Time Latitude Longitude Altitude Speed Heading
2026-05-04 09:04 18.13166 100.16281 542 ft 0 kts
2026-05-04 09:07 18.13215 100.16469 545 ft 7 kts
2026-05-04 09:08 18.13277 100.16475 546 ft 11 kts
2026-05-04 09:08 18.13374 100.16486 547 ft 16 kts
2026-05-04 09:08 18.13496 100.16497 547 ft 19 kts
2026-05-04 09:08 18.13627 100.16509 549 ft 18 kts
2026-05-04 09:09 18.13748 100.16522 551 ft 17 kts
2026-05-04 09:09 18.13853 100.16512 551 ft 8 kts 339°
2026-05-04 09:09 18.13871 100.16518 550 ft 1 kts 84°
2026-05-04 09:09 18.13848 100.16531 551 ft 8 kts 175°
2026-05-04 09:10 18.13777 100.16524 551 ft 33 kts 187°
2026-05-04 09:10 18.13373 100.16485 547 ft 84 kts 183°
2026-05-04 09:10 18.12635 100.16418 620 ft 121 kts 185°
2026-05-04 09:10 18.11739 100.16354 939 ft 138 kts 184°
2026-05-04 09:11 18.10720 100.16327 1300 ft 155 kts 182°
2026-05-04 09:11 18.09589 100.16296 1649 ft 172 kts 181°
2026-05-04 09:11 18.08335 100.16267 2036 ft 188 kts 180°
2026-05-04 09:11 18.06969 100.16217 2408 ft 204 kts 181°
2026-05-04 09:12 18.05548 100.16155 2741 ft 203 kts 181°
2026-05-04 09:12 18.04135 100.16082 3101 ft 204 kts 181°
2026-05-04 09:14 17.94191 100.16925 5705 ft 207 kts 173°
2026-05-04 09:14 17.92748 100.17083 6046 ft 209 kts 174°
2026-05-04 09:14 17.91299 100.17246 6382 ft 210 kts 174°
2026-05-04 09:14 17.89844 100.17412 6716 ft 211 kts 174°
2026-05-04 09:15 17.88381 100.17579 7039 ft 212 kts 175°
2026-05-04 09:15 17.86914 100.17745 7340 ft 213 kts 175°
2026-05-04 09:15 17.85440 100.17915 7629 ft 214 kts 175°
2026-05-04 09:15 17.83955 100.18085 7938 ft 215 kts 175°
2026-05-04 09:17 17.71847 100.19473 10331 ft 223 kts 176°
2026-05-04 09:18 17.70301 100.19649 10645 ft 224 kts 176°
2026-05-04 09:18 17.68747 100.19824 10940 ft 225 kts 177°
2026-05-04 09:18 17.67181 100.20004 11243 ft 227 kts 177°
2026-05-04 09:18 17.65611 100.20185 11553 ft 228 kts 177°
2026-05-04 09:19 17.64027 100.20364 11871 ft 229 kts 177°
2026-05-04 09:19 17.62466 100.20545 12184 ft 230 kts 178°
2026-05-04 09:19 17.60873 100.20728 12504 ft 231 kts 178°
2026-05-04 09:19 17.59272 100.20910 12807 ft 232 kts 178°
2026-05-04 09:20 17.57627 100.21097 12894 ft 243 kts 178°
2026-05-04 09:20 17.55907 100.21295 12935 ft 253 kts 177°
2026-05-04 09:20 17.54120 100.21498 12951 ft 262 kts 177°
2026-05-04 09:20 17.52281 100.21709 12958 ft 269 kts 177°
2026-05-04 09:21 17.50398 100.21926 12962 ft 275 kts 177°
2026-05-04 09:21 17.48482 100.22144 12964 ft 279 kts 177°
2026-05-04 09:21 17.46539 100.22366 12965 ft 282 kts 177°
2026-05-04 09:21 17.44575 100.22592 12964 ft 284 kts 177°
2026-05-04 09:22 17.42624 100.22814 12966 ft 286 kts 177°
2026-05-04 09:22 17.40638 100.23040 12969 ft 288 kts 177°
2026-05-04 09:22 17.38643 100.23271 12970 ft 289 kts 177°
2026-05-04 09:22 17.36635 100.23502 12967 ft 290 kts 177°
2026-05-04 09:23 17.34620 100.23732 12963 ft 291 kts 177°
2026-05-04 09:23 17.32605 100.23963 12967 ft 291 kts 177°
2026-05-04 09:23 17.30587 100.24190 12961 ft 291 kts 177°
2026-05-04 09:23 17.28572 100.24420 12965 ft 291 kts 177°
2026-05-04 09:25 17.14785 100.28127 12968 ft 294 kts 167°
2026-05-04 09:25 17.12809 100.28691 12969 ft 294 kts 167°
2026-05-04 09:26 17.10837 100.29257 12963 ft 292 kts 167°
2026-05-04 09:26 17.08882 100.29821 12960 ft 292 kts 167°
2026-05-04 09:26 17.06945 100.30379 12953 ft 292 kts 167°
2026-05-04 09:26 17.04981 100.30942 12952 ft 291 kts 167°
2026-05-04 09:27 17.03032 100.31500 12949 ft 288 kts 167°
2026-05-04 09:27 17.01110 100.32053 12946 ft 285 kts 167°
2026-05-04 09:27 16.99206 100.32596 12938 ft 283 kts 167°
2026-05-04 09:27 16.97314 100.33138 12934 ft 281 kts 167°
2026-05-04 09:28 16.95435 100.33679 12931 ft 280 kts 167°
2026-05-04 09:28 16.93559 100.34218 12891 ft 280 kts 167°
2026-05-04 09:28 16.91720 100.34745 12602 ft 275 kts 167°
2026-05-04 09:28 16.89862 100.35279 12297 ft 271 kts 167°
2026-05-04 09:29 16.88073 100.35795 12005 ft 267 kts 167°
2026-05-04 09:29 16.86406 100.36628 11657 ft 268 kts 148°
2026-05-04 09:29 16.84919 100.37799 11197 ft 268 kts 143°
2026-05-04 09:29 16.83463 100.39019 10709 ft 266 kts 143°
2026-05-04 09:30 16.82047 100.40171 10218 ft 251 kts 145°
2026-05-04 09:30 16.80668 100.41228 9733 ft 240 kts 146°
2026-05-04 09:30 16.79334 100.42227 9216 ft 233 kts 147°
2026-05-04 09:30 16.78050 100.43188 8691 ft 227 kts 146°
2026-05-04 09:31 16.76783 100.44143 8190 ft 222 kts 146°
2026-05-04 09:31 16.75540 100.45081 7682 ft 218 kts 145°
2026-05-04 09:31 16.74313 100.46004 7186 ft 216 kts 145°
2026-05-04 09:31 16.73102 100.46920 6670 ft 214 kts 144°
2026-05-04 09:32 16.71902 100.47825 6161 ft 212 kts 144°
2026-05-04 09:32 16.70719 100.48725 5644 ft 209 kts 144°
2026-05-04 09:34 16.63026 100.47680 3321 ft 181 kts 233°
2026-05-04 09:34 16.62341 100.46652 3226 ft 168 kts 232°
2026-05-04 09:34 16.61664 100.45648 3097 ft 172 kts 232°
2026-05-04 09:34 16.60973 100.44625 2877 ft 172 kts 233°
2026-05-04 09:35 16.60299 100.43609 2655 ft 169 kts 235°
2026-05-04 09:35 16.60003 100.42451 2448 ft 169 kts 276°
2026-05-04 09:35 16.60564 100.41423 2349 ft 161 kts 312°
2026-05-04 09:35 16.61369 100.40631 2302 ft 162 kts 319°
2026-05-04 09:37 16.67426 100.36153 2036 ft 133 kts 323°
2026-05-04 09:37 16.68178 100.35588 1961 ft 136 kts 325°
2026-05-04 09:38 16.68954 100.35006 1866 ft 138 kts 324°
2026-05-04 09:38 16.69731 100.34412 1768 ft 139 kts 324°
2026-05-04 09:38 16.70496 100.33813 1689 ft 140 kts 324°
2026-05-04 09:38 16.71271 100.33209 1580 ft 135 kts 324°
2026-05-04 09:39 16.72011 100.32644 1443 ft 128 kts 325°
2026-05-04 09:39 16.72713 100.32104 1428 ft 123 kts 323°
2026-05-04 09:39 16.73361 100.31583 1268 ft 134 kts 323°
2026-05-04 09:39 16.74103 100.30976 1123 ft 137 kts 323°
2026-05-04 09:40 16.74876 100.30409 965 ft 134 kts 328°
2026-05-04 09:40 16.75676 100.29893 753 ft 135 kts 323°
2026-05-04 09:40 16.76421 100.29327 481 ft 132 kts 323°
2026-05-04 09:40 16.77153 100.28779 217 ft 125 kts 322°
2026-05-04 09:41 16.77743 100.28330 150 ft 61 kts 326°
2026-05-04 09:42 16.79271 100.27177 153 ft 18 kts 324°
2026-05-04 09:43 16.79378 100.27121 153 ft 17 kts 21°
2026-05-04 09:43 16.79455 100.27213 151 ft 17 kts 55°
2026-05-04 09:43 16.79508 100.27289 151 ft 2 kts 58°
2026-05-04 09:43 16.79511 100.27302 151 ft 5 kts 84°
2026-05-04 09:44 16.79484 100.27334 151 ft 1 kts 143°
2026-05-04 09:44 16.79479 100.27338 151 ft 0 kts 145°